RH
31 42 47 39 44 55 60 69 75 80 74 71 67 67 57 54 56 61 60 61 62 54 55 57 56 54 54 61 58 49 57 77 78 80 74 73 54 74 87 86 78 66 60 53 46 44 40 33 22 15 12 10 10 10
74 76 65 64 59 68 66 66 63 72 74 70 68 67 67 59 58 56 52 56 62 71 60 60 60 62 62 68 65 61 60 66 61 78 80 72 71 62 84 83 91 81 78 62 56 62 58 48 35 18 15 12 12 11
75 72 71 67 68 67 73 69 63 64 66 65 66 63 63 62 59 57 57 56 54 52 55 57 63 69 70 68 71 68 69 84 76 75 77 70 64 71 71 80 92 91 92 73 61 92 76 50 49 37 19 19 18 16
80 75 70 71 66 66 63 56 56 53 53 59 60 58 58 59 56 51 51 51 56 56 50 47 51 55 56 56 55 57 61 65 74 76 78 72 68 62 68 75 62 95 88 98 64 82 76 51 51 40 38 20 23 25
58 49 53 62 66 65 69 57 50 41 39 44 52 54 48 46 49 43 43 49 46 79 95 50 43 43 45 49 65 68 70 75 78 79 79 86 87 96 81 69 38 88 96 95 76 100 60 64 54 43 35 24 25 26
7 12 11 9 13 24 37 36 26 19 22 26 24 31 37 36 35 28 30 36 38 58 100 99 52 40 41 52 58 75 95 100 96 100 98 84 89 94 89 68 52 75 92 98 86 97 68 68 60 57 36 33 37 28
1 1 2 3 5 5 7 8 7 9 10 11 11 16 16 15 14 14 15 14 14 14 20 32 50 44 51 48 55 79 91 88 89 86 75 82 86 100 94 57 66 79 97 97 92 94 70 73 44 59 42 41 47 32
2 2 2 2 2 2 2 2 2 2 2 2 2 3 3 5 5 5 3 2 2 2 2 3 5 10 14 22 33 50 79 100 98 100 95 93 89 85 73 51 80 99 99 92 93 90 69 73 86 73 75 64 60 47
3 3 3 2 2 2 2 2 2 2 2 2 2 2 1 2 2 2 2 2 2 2 2 2 1 2 3 3 4 6 10 42 82 100 100 100 98 85 64 72 80 98 99 90 88 92 98 95 93 96 93 81 91 80
3 3 3 3 3 3 3 3 3 3 3 2 2 2 2 2 2 2 2 2 2 2 2 2 9 26 36 14 28 42 31 29 38 47 89 87 90 95 90 94 96 98 99 84 78 85 96 92 94 97 97 94 95 78
3 3 3 3 3 3 3 3 3 3 3 3 3 3 3 2 3 3 2 2 2 2 2 3 17 9 18 23 12 14 21 24 39 73 100 93 53 59 75 89 100 100 90 83 82 78 85 83 85 87 99 93 78 69
4 4 4 3 3 3 3 3 3 3 3 4 3 3 3 3 3 3 2 2 3 4 3 3 6 5 5 5 13 46 82 74 70 93 100 100 65 78 99 100 100 97 90 82 86 79 83 80 76 91 99 95 85 67
5 5 5 4 4 4 4 4 4 4 7 6 8 5 3 4 4 3 2 3 4 5 5 6 6 6 5 6 8 82 100 100 100 100 100 86 75 95 94 96 98 100 99 94 98 91 89 97 89 93 99 95 86 74
8 8 7 7 7 7 8 7 9 10 13 13 12 10 6 4 3 4 5 7 8 13 16 20 14 9 10 8 38 97 100 100 100 88 39 54 97 90 84 96 100 99 99 100 99 100 95 91 92 100 100 94 91 88
12 13 13 12 15 18 20 22 20 20 21 20 23 12 6 5 8 8 12 13 28 39 35 32 23 17 22 31 19 45 65 59 44 14 36 82 100 100 100 88 86 100 100 97 95 94 98 100 98 100 100 100 100 100
23 26 23 26 27 32 41 67 55 39 31 27 24 15 11 14 13 10 10 11 15 16 37 29 45 67 100 100 100 84 80 98 100 100 100 98 96 100 99 100 100 100 96 100 100 100 100 100 100 100 100 100 96 95
30 26 31 31 31 46 88 100 100 100 77 26 18 17 16 17 12 11 12 15 41 66 99 99 80 100 100 97 99 97 94 92 91 65 96 100 97 98 84 94 100 100 100 100 100 100 100 100 100 100 100 100 100 97
22 23 28 32 36 94 100 100 100 100 59 25 23 19 22 16 16 16 15 22 55 85 97 100 100 100 77 89 94 100 100 100 100 100 100 100 84 63 64 70 100 100 96 94 100 100 100 100 100 100 100 100 98 98
24 27 33 39 71 100 100 100 100 83 34 33 28 23 22 19 20 22 23 41 86 100 100 92 100 86 42 26 20 40 68 99 99 100 100 100 100 100 100 100 100 97 70 94 68 66 78 100 99 74 71 94 100 100
32 32 40 66 100 100 100 100 84 59 37 38 43 31 32 38 33 36 34 41 78 100 100 66 28 12 13 11 13 14 10 22 52 59 74 97 100 100 100 98 87 61 92 100 94 77 89 75 85 80 73 96 100 100
62 43 66 100 100 100 100 92 69 62 62 41 35 41 39 41 37 34 31 48 78 43 17 13 14 13 14 12 12 9 9 9 8 11 20 27 43 53 97 91 96 94 99 100 100 100 100 100 100 100 100 100 100 97
64 94 100 100 100 100 98 78 74 75 69 50 49 63 39 27 28 31 75 88 36 36 42 37 30 23 17 18 19 12 11 14 12 13 18 18 31 50 49 72 100 100 91 100 100 100 100 100 94 99 100 100 100 98
100 100 100 100 100 100 89 79 69 64 58 52 59 38 18 25 29 53 39 30 28 31 39 36 31 41 39 25 25 11 8 10 9 8 8 19 40 52 65 88 85 86 80 88 100 100 100 96 98 100 100 100 100 100
100 100 100 100 100 99 74 71 74 77 68 50 34 28 30 38 52 44 25 25 40 62 86 92 94 61 41 19 12 11 12 20 9 7 18 36 31 55 83 72 74 72 65 75 91 90 100 100 100 100 100 100 99 100
100 100 100 100 100 77 72 70 63 51 29 38 48 54 51 56 47 25 59 100 100 100 100 100 100 100 99 84 77 76 57 22 7 6 11 37 55 64 53 46 56 64 58 70 68 73 99 100 100 100 100 100 98 100
100 100 100 100 100 89 66 59 48 53 60 54 59 60 54 48 39 89 100 100 100 100 100 100 100 100 100 100 100 100 89 36 74 77 99 99 88 84 91 91 62 51 66 88 89 94 85 94 100 100 100 100 98 100
100 100 100 100 83 76 64 55 59 60 49 42 46 57 50 51 89 100 99 100 100 100 100 98 88 74 78 97 95 60 68 81 94 97 92 85 82 82 88 99 100 100 100 100 98 88 79 99 100 100 100 99 100 100
97 98 82 77 79 74 72 57 42 38 40 43 54 73 73 96 100 97 100 100 95 90 87 90 83 62 55 58 64 65 79 93 100 89 75 68 66 90 100 100 100 100 100 100 93 86 98 100 100 100 100 100 100 100
98 93 80 63 68 59 40 40 46 52 51 71 86 97 100 100 100 100 99 90 94 98 100 100 100 99 93 93 99 100 100 90 69 60 56 62 71 99 100 100 100 100 100 100 100 100 99 99 100 100 100 100 81 46
54 57 51 49 50 49 52 63 54 65 85 90 100 100 100 100 96 91 100 100 100 100 100 100 100 100 92 98 100 100 100 100 84 70 74 87 100 100 100 100 100 100 100 100 100 100 100 100 100 100 73 47 57 77
66 74 73 67 46 42 47 64 82 91 100 100 100 94 100 100 100 98 99 100 100 100 100 100 100 100 97 99 100 100 100 100 100 100 100 100 100 100 100 100 100 100 100 100 92 78 66 56 50 58 86 86 84 64
100 70 44 35 52 69 82 92 98 100 100 92 99 94 100 100 100 100 100 100 100 100 100 100 100 100 100 100 100 100 100 100 100 100 100 100 100 100 100 86 57 32 25 23 24 28 38 77 100 96 96 88 57 60
50 47 65 93 98 100 100 100 100 100 98 100 100 100 100 100 100 100 100 100 100 100 100 100 97 98 100 100 100 100 100 100 100 100 100 100 86 49 33 30 29 28 27 34 47 64 96 95 99 100 98 56 59 89
Wind_Speed
89 86 83 82 77 74 68 65 59 58 62 59 56 51 51 52 53 54 53 54 56 55 55 57 56 57 57 54 54 56 57 52 53 51 52 51 53 44 33 32 28 25 27 30 31 32 30 28 28 24 20 18 20 20
85 84 84 84 81 73 72 69 67 62 60 61 61 55 54 56 59 60 59 59 59 60 58 60 62 63 65 63 62 62 62 61 62 60 59 61 59 58 48 39 25 31 29 29 33 31 35 35 30 27 19 18 18 19
89 85 83 82 83 77 75 73 71 70 66 65 64 63 62 63 65 66 68 67 68 66 66 65 64 67 69 70 70 68 68 67 65 65 64 67 69 64 60 50 39 35 31 32 32 25 37 42 33 31 27 22 23 22
93 90 90 88 84 85 84 81 79 77 78 77 76 75 74 74 75 75 75 73 77 81 77 70 69 65 68 71 72 72 71 74 74 74 72 72 72 73 69 63 61 41 36 33 33 32 40 40 36 31 32 27 24 27
100 98 96 94 90 92 92 89 86 84 82 83 85 83 81 81 85 86 83 80 83 88 90 83 75 71 71 75 77 77 76 76 75 76 78 77 76 75 74 74 62 49 37 39 35 38 42 41 40 38 33 31 29 30
88 89 88 90 89 90 91 93 88 87 88 86 85 85 87 87 87 90 92 90 88 92 93 93 86 81 82 83 85 84 80 78 78 76 78 80 78 81 79 79 66 57 45 38 36 40 45 41 43 39 38 33 32 34
81 80 81 83 85 85 85 84 84 83 83 83 82 83 85 85 85 86 87 85 88 89 91 94 97 91 89 90 90 85 82 81 81 84 85 79 74 79 81 81 67 58 50 47 42 41 44 48 37 34 36 36 39 38
78 78 77 77 77 77 76 76 77 77 77 77 76 76 77 78 77 78 77 76 76 80 85 88 92 89 89 93 90 91 90 87 89 87 86 80 76 79 82 69 58 54 49 48 42 42 41 39 43 42 39 36 36 41
77 77 77 77 76 75 75 75 74 75 76 75 75 75 75 75 73 70 71 72 70 74 80 84 82 79 79 82 83 83 85 89 91 89 86 83 82 82 69 61 52 54 53 61 50 43 45 44 43 41 43 42 43 43
75 75 74 73 73 72 72 72 72 73 73 74 74 72 71 70 70 69 69 71 73 73 74 76 73 70 69 72 70 69 73 75 80 82 77 85 86 71 66 59 57 53 52 57 53 47 47 47 46 48 44 44 44 43
75 74 73 72 72 71 70 68 70 70 71 72 71 70 68 68 66 67 68 69 71 73 73 69 65 64 67 66 66 64 67 69 70 70 70 78 80 68 53 50 48 46 46 47 49 48 44 44 43 45 45 42 43 44
72 71 71 70 69 68 68 67 67 67 67 66 67 67 64 63 64 66 66 67 71 69 67 61 58 55 62 60 57 54 57 59 61 66 72 75 60 48 47 46 50 51 51 48 44 44 44 43 41 43 42 43 42 43
66 66 66 64 63 63 63 62 63 62 60 62 61 63 63 62 63 66 67 65 64 60 57 54 55 53 55 51 51 46 52 54 55 62 66 65 54 46 45 47 48 43 41 39 40 42 43 45 43 40 40 43 46 46
59 59 60 59 57 56 56 56 55 54 55 55 58 60 61 64 65 63 59 56 55 52 52 50 52 53 54 55 51 54 60 61 63 65 59 57 53 47 42 42 40 42 42 38 39 42 46 47 48 45 41 41 43 45
53 52 52 51 49 47 48 49 48 48 51 53 55 62 64 59 58 53 50 48 43 42 43 43 48 52 53 55 57 54 55 58 61 59 52 41 27 26 33 40 46 38 39 38 43 47 48 50 51 50 43 43 44 46
46 47 44 44 43 43 43 41 44 48 53 56 59 62 59 58 56 49 44 43 42 44 43 44 42 44 44 47 51 55 48 48 43 32 31 39 43 40 42 36 37 43 45 41 44 41 46 50 53 51 48 47 48 49
45 41 41 40 40 40 37 38 43 47 53 59 58 56 56 56 49 46 43 41 39 38 32 33 37 36 38 44 46 45 45 41 38 45 52 51 50 53 51 50 45 43 39 43 41 47 45 43 45 48 51 51 53 53
39 39 39 38 38 33 38 43 47 51 55 54 52 50 50 45 45 45 41 42 42 41 35 40 40 48 52 48 45 29 34 38 38 35 37 39 49 56 55 52 50 50 49 46 42 46 45 46 43 46 46 48 49 49
37 36 37 37 33 34 42 48 51 55 52 47 46 45 46 43 42 41 39 42 44 47 49 47 43 48 53 54 56 51 48 51 48 41 40 38 33 38 39 44 44 44 48 50 51 51 50 47 43 46 48 51 45 47
36 36 36 34 32 40 47 51 51 51 48 43 43 42 41 41 38 40 41 42 45 50 54 52 54 52 52 50 49 54 56 54 55 56 61 54 46 43 41 44 43 43 38 35 47 47 44 45 45 44 44 47 47 42
34 34 33 30 34 43 48 51 48 47 45 43 38 38 40 39 39 39 40 40 47 49 48 46 49 48 48 49 51 49 47 49 53 55 54 53 51 55 51 46 41 45 42 33 34 35 36 34 37 38 40 40 38 39
31 31 29 33 36 46 51 50 46 43 44 43 41 38 39 37 35 33 37 42 42 42 46 48 46 44 44 46 47 46 44 46 49 50 49 45 43 44 48 48 48 40 38 29 36 34 28 34 35 29 27 30 32 35
27 31 34 40 46 51 54 47 45 43 44 44 42 40 36 33 31 34 41 41 41 38 39 40 38 37 36 32 34 36 37 41 44 44 45 47 44 42 40 43 42 38 38 33 31 28 31 37 33 32 32 32 34 33
30 33 39 42 47 51 49 46 45 44 44 42 39 38 37 37 36 36 34 23 13 14 14 16 20 23 24 24 25 24 25 31 38 39 40 40 41 41 40 35 35 34 35 36 32 33 34 36 37 35 34 36 33 33
37 37 40 46 51 50 46 44 40 37 33 29 33 36 31 29 31 21 8 2 6 8 11 16 17 19 18 14 18 19 20 27 28 23 21 20 22 25 29 34 32 31 35 34 33 34 30 28 30 31 33 33 31 28
40 41 45 45 48 46 43 37 31 27 27 27 27 28 26 28 18 11 4 7 8 6 6 9 11 9 7 14 23 22 18 19 15 14 16 23 25 25 24 18 19 26 33 32 32 29 26 23 25 28 26 26 28 26
44 44 44 43 42 39 35 29 27 29 29 28 25 24 25 20 11 4 6 11 13 14 15 17 22 23 21 20 18 17 21 19 17 16 21 22 17 15 17 18 18 21 28 30 31 32 28 28 28 27 30 32 27 26
46 45 44 42 41 38 36 31 27 28 28 25 22 22 17 10 4 10 13 14 15 21 23 22 22 18 16 15 17 19 20 20 17 16 17 17 18 22 21 20 18 22 25 26 27 28 27 26 28 29 27 24 23 23
42 41 40 36 35 32 26 23 24 23 20 22 19 10 8 9 12 13 13 13 14 15 16 15 18 21 22 19 17 12 9 11 14 15 19 21 20 19 20 19 18 18 17 18 21 24 25 25 24 22 22 22 20 18
32 29 27 24 23 23 16 21 17 19 23 13 7 9 7 8 12 11 11 12 12 12 15 14 15 18 17 13 10 7 8 10 12 14 15 16 16 14 13 13 14 14 14 14 15 16 18 20 22 24 21 18 17 17
16 19 22 24 23 15 16 19 21 16 9 7 9 6 9 12 12 12 12 13 14 15 15 13 12 11 10 10 9 8 8 9 9 9 10 12 12 12 12 12 13 14 14 14 15 17 20 20 17 15 14 16 18 17
18 19 16 12 13 18 18 14 11 10 9 9 8 7 7 6 8 14 14 12 12 12 12 12 8 7 7 8 10 10 11 11 11 12 13 12 12 12 11 9 10 11 12 14 17 16 15 14 13 12 14 15 17 12
15 14 17 17 14 12 11 11 9 8 8 7 5 6 7 7 9 11 10 7 7 9 10 8 7 7 8 9 9 10 10 11 11 11 11 11 10 6 4 5 7 10 11 14 15 16 14 11 11 12 13 16 14 11
Wind_Direction
274 275 276 276 277 279 279 277 277 273 282 274 270 272 272 271 271 272 272 272 274 274 273 273 275 279 281 284 284 285 287 289 290 292 294 295 295 297 296 300 299 294 298 299 295 297 299 292 290 294 292 300 306 306
267 270 273 274 272 270 273 275 275 274 272 274 274 271 265 268 271 272 271 270 269 271 272 273 276 279 279 283 284 284 285 288 289 291 291 290 292 292 296 297 286 286 289 292 300 294 291 287 285 282 279 285 291 295
271 267 268 271 271 270 268 269 271 272 271 269 268 270 269 268 269 269 269 270 273 271 268 270 269 272 277 281 280 280 281 285 285 286 287 287 287 289 290 290 284 290 282 289 291 285 281 284 279 276 273 269 275 279
269 270 270 267 269 270 271 272 271 271 273 271 268 267 265 267 267 267 269 270 269 270 269 268 263 265 270 274 277 278 279 280 281 283 284 283 284 284 287 288 287 287 291 277 282 280 267 279 279 268 270 266 266 270
273 273 271 270 270 269 271 272 272 273 271 271 271 269 264 263 265 266 265 268 268 267 268 266 264 264 266 269 270 271 272 274 275 277 278 281 281 282 284 282 285 288 288 279 275 276 276 271 270 270 262 261 265 267
273 273 273 273 273 273 272 273 273 273 271 270 268 269 269 267 266 265 266 267 264 266 269 268 263 264 263 264 267 271 273 273 273 275 276 275 278 279 278 277 277 287 285 273 274 271 278 277 276 273 257 254 259 260
268 269 270 270 270 271 272 272 271 271 270 269 269 267 267 268 268 268 268 267 265 266 269 270 269 265 265 264 266 271 272 273 273 273 272 274 274 273 274 277 284 287 284 274 270 270 267 273 266 267 254 260 266 256
268 268 268 268 269 270 270 270 270 271 271 271 270 270 269 268 268 269 269 267 266 266 267 268 270 268 266 267 267 265 266 268 268 270 271 273 273 273 274 281 285 278 278 276 273 269 268 266 266 268 270 263 265 263
267 268 269 269 269 269 270 270 271 270 271 270 270 269 269 269 269 268 268 267 265 264 266 268 270 272 270 268 269 269 266 265 267 269 269 270 270 270 279 281 285 277 275 273 269 270 269 268 261 258 260 265 267 269
268 268 268 268 269 269 270 270 270 270 270 270 270 269 269 269 268 267 265 265 264 264 265 267 268 267 268 273 271 272 272 270 270 271 271 269 270 273 272 278 282 279 271 270 274 267 270 273 271 270 267 266 268 270
266 267 267 268 268 268 267 267 268 268 269 269 268 268 268 268 267 266 265 266 267 266 265 266 263 269 271 270 272 270 270 270 269 270 266 269 271 274 278 274 268 271 270 268 268 269 269 270 273 271 267 260 262 266
264 264 265 265 265 266 266 266 266 266 267 267 267 266 266 265 265 265 266 267 265 265 267 268 269 266 266 268 269 268 271 270 264 265 270 273 275 274 265 265 267 266 267 268 264 263 264 266 265 263 266 263 263 268
261 261 261 262 262 263 264 263 263 263 262 262 262 263 264 263 263 266 267 266 267 269 269 267 266 263 264 265 265 262 262 262 261 263 268 270 271 277 278 268 267 264 258 256 255 257 261 261 261 260 259 260 260 261
257 258 258 258 258 258 259 259 258 257 257 258 259 260 261 262 262 263 264 266 268 269 270 269 265 263 262 261 255 250 253 254 259 262 266 273 280 278 276 267 263 262 255 246 248 251 255 255 257 261 258 256 256 258
254 254 255 255 255 254 255 256 256 254 254 254 255 257 261 264 262 263 265 268 268 269 269 267 264 263 262 261 259 259 260 260 261 267 269 274 270 261 258 265 255 248 240 249 252 249 248 252 253 257 258 258 259 260
251 249 251 251 251 251 251 251 252 252 251 251 252 256 261 264 265 267 269 268 268 267 266 261 259 259 260 256 256 258 257 260 268 269 266 263 259 257 253 245 241 248 248 247 241 249 251 253 256 260 262 257 256 260
248 248 246 247 246 246 245 242 246 248 252 254 257 262 265 267 274 274 272 271 268 266 253 254 252 251 258 258 258 259 260 260 263 257 251 254 255 254 252 250 251 249 243 242 245 244 246 249 250 258 263 261 258 257
246 244 241 242 242 238 236 240 246 251 256 261 264 266 270 273 270 269 269 264 262 256 249 254 253 247 242 239 242 229 244 250 250 248 238 246 249 250 257 260 257 262 265 253 249 252 259 264 256 260 268 270 267 263
241 240 235 236 235 232 236 240 245 254 262 265 267 268 269 269 266 267 266 262 260 261 263 263 259 258 256 253 254 243 242 237 235 229 233 246 235 238 249 250 253 259 262 263 270 267 267 265 268 271 277 274 275 272
238 234 230 230 221 231 240 245 251 258 264 268 266 266 266 264 265 263 263 264 266 267 266 265 267 271 271 270 265 261 257 249 248 249 241 241 244 247 259 269 260 261 256 249 261 264 256 263 267 265 265 267 269 270
233 226 223 219 223 237 241 248 254 261 266 269 266 261 261 262 264 267 270 273 270 271 276 275 272 269 266 264 263 261 258 256 253 252 250 247 244 245 248 254 258 261 249 249 243 253 247 250 257 257 258 262 264 267
226 215 210 212 221 240 245 249 254 261 265 267 267 266 269 271 273 275 274 269 274 274 275 274 273 272 267 263 264 259 254 250 249 248 247 245 232 233 232 237 247 256 248 248 250 253 248 257 268 263 262 263 269 275
210 201 207 217 225 234 242 248 254 260 264 266 268 273 279 284 288 288 277 271 273 278 280 278 277 274 271 264 260 254 248 248 247 244 244 234 227 229 226 233 241 243 241 248 243 241 249 245 251 255 265 266 271 275
208 204 214 222 233 239 244 250 255 259 263 268 275 280 282 287 287 277 273 280 287 281 289 296 298 291 284 276 269 261 252 254 252 247 240 237 232 228 235 237 237 242 245 246 247 250 253 248 251 257 263 266 274 278
208 215 226 229 235 242 247 254 260 264 270 275 274 275 280 276 269 258 190 169 271 297 293 278 286 292 296 287 274 268 258 255 256 248 227 220 221 227 237 244 245 249 242 247 253 250 248 256 258 258 261 271 274 277
214 218 222 234 246 248 252 259 267 274 275 271 275 273 268 257 234 180 216 247 259 247 226 215 211 218 260 280 259 253 241 221 212 219 233 243 238 232 230 226 217 225 236 247 242 240 246 259 265 259 262 266 271 275
216 224 226 235 242 247 254 262 269 273 275 275 266 253 237 220 213 304 256 234 237 237 233 224 219 234 230 226 224 203 209 225 251 250 232 235 239 240 250 254 251 253 253 261 250 238 236 247 257 259 259 262 268 269
221 228 233 238 245 256 263 270 268 269 269 269 244 223 220 242 290 250 236 233 239 229 225 225 235 241 235 231 227 233 242 244 236 226 222 228 240 253 262 271 262 253 249 239 230 229 231 234 240 246 255 257 259 255
231 237 240 246 251 256 260 271 281 282 266 233 216 208 224 257 260 250 249 257 257 248 246 251 259 266 263 251 242 242 244 222 213 218 225 232 236 251 260 258 249 248 250 242 237 237 238 241 245 245 248 252 247 244
242 247 253 257 260 265 277 273 252 222 210 206 221 220 241 240 250 258 254 260 270 268 251 262 266 253 239 236 240 231 207 207 209 215 225 235 246 249 245 236 227 228 226 223 219 219 222 225 231 236 232 234 232 255
252 252 253 254 253 242 232 216 198 197 204 227 249 239 226 232 247 259 265 275 279 267 245 237 242 235 229 229 227 217 207 204 209 218 228 232 232 233 233 234 238 236 230 220 216 221 224 225 218 215 225 237 245 222
221 229 233 205 179 185 184 185 187 185 194 201 231 251 253 250 239 246 265 264 256 244 228 222 220 208 205 227 231 223 218 218 219 221 221 224 231 226 199 190 199 208 218 219 212 203 192 194 205 224 239 237 210 228
167 157 148 150 157 163 171 171 172 184 198 200 220 247 242 228 219 234 243 228 223 221 219 221 228 222 211 209 211 214 218 223 229 225 220 205 181 170 182 222 246 244 237 203 188 187 190 208 230 248 230 204 217 247